Flag for Martinique Weather past 2 weeks in Fort-de-France, Martinique

Now
82 °F

Passing clouds.


Feels Like: 89 °F
Forecast: 80 / 87 °F
Wind: 12 mph from Northeast

Location: Le Lamentin Airport

Current Time: Jul 23, 2014 at 9:58:05 PM

Latest Report: Jul 23, 2014 at 9:00 PM


Visibility: N/A

Pressure: 29.98 "Hg

Humidity: 79%

Dew point: 75 °F

Location of Fort-de-FranceLocation

Historic Weather in Fort-de-France — Graph

°F

Fort-de-France temperature yesterday

Maximum temperature yesterday: 88 °F (at 11:00 AM)
Minimum temperature yesterday: 77 °F (at 2:30 AM)
Average temperature yesterday: 81 °F

Past Weeks' High & Low Weather Summary

 TemperatureHumidityPressure
High90 °F (Jul 17, 1:30 PM)89% (Jul 9, 3:00 AM)30.09 "Hg (Jul 9, 3:00 AM)
Low77 °F (Jul 9, 2:00 AM)52% (Jul 13, 12:00 PM)29.95 "Hg (Jul 23, 3:00 PM)
Average82 °F73%30.04 "Hg
* Reported Jul 8 8:00 PM — Jul 23 8:30 PM, Fort-de-France, Weather by CustomWeather, © 2014

Note: Actual official high and low records may vary slightly from our data, if they occured in-between our weather recording intervals... More about our weather records

Advertising

Fort-de-France weather history for previous 24 hours

 ConditionsComfort  
Time TempWeatherWind HumidityBarometerVisibility
8:30 PM
Jul 23
82 °FPartly cloudy.13 mph79%29.98 "HgN/A
8:00 PM82 °FPassing clouds.12 mph79%29.98 "HgN/A
7:30 PM82 °FPartly cloudy.13 mph74%29.98 "HgN/A
7:00 PM82 °FMostly cloudy.16 mph74%29.98 "HgN/A
6:30 PM82 °FBroken clouds.13 mph74%29.98 "HgN/A
6:00 PM82 °FPartly sunny.18 mph74%29.95 "HgN/A
5:30 PM84 °FBroken clouds.18 mph70%29.95 "HgN/A
5:00 PM84 °FBroken clouds.18 mph70%29.95 "HgN/A
4:30 PM84 °FPartly sunny.20 mph70%29.95 "HgN/A
4:00 PM86 °FBroken clouds.18 mph66%29.95 "HgN/A
3:00 PM84 °FPartly sunny.16 mph74%29.95 "HgN/A
2:30 PM81 °FMore clouds than sun.13 mph84%29.98 "HgN/A
2:00 PM86 °FPartly sunny.18 mph66%29.98 "HgN/A
1:30 PM86 °FPartly sunny.16 mph62%29.98 "HgN/A
1:00 PM86 °FMostly cloudy.21 mph62%30.01 "HgN/A
12:30 PM88 °FMostly cloudy.16 mph62%30.01 "HgN/A
12:00 PM86 °FPartly sunny.18 mph66%30.01 "HgN/A
11:30 AM86 °FPartly sunny.22 mph62%30.01 "HgN/A
11:00 AM86 °FPartly sunny.21 mph62%30.04 "HgN/A
10:30 AM86 °FPartly sunny.22 mph62%30.04 "HgN/A
10:00 AM86 °FPartly sunny.18 mph62%30.04 "HgN/A
9:30 AM86 °FPartly sunny.N/A66%30.04 "HgN/A
9:00 AM84 °FPartly sunny.17 mph70%30.04 "HgN/A
8:30 AM84 °FBroken clouds.17 mph70%30.04 "HgN/A
8:00 AM82 °FBroken clouds.17 mph74%30.01 "HgN/A
7:30 AM82 °FBroken clouds.17 mph74%30.01 "HgN/A
7:00 AM82 °FBroken clouds.16 mph74%30.01 "HgN/A
6:00 AM81 °FBroken clouds.10 mph84%30.01 "HgN/A
5:30 AM81 °FPassing clouds.12 mph84%29.98 "HgN/A
5:00 AM81 °FPartly cloudy.13 mph84%29.98 "HgN/A
2:00 AM81 °FPartly cloudy.9 mph84%29.98 "HgN/A
1:00 AM81 °FPartly cloudy.8 mph84%30.01 "HgN/A
12:30 AM81 °FPassing clouds.9 mph84%30.01 "HgN/A
12:00 AM81 °FPassing clouds.12 mph84%30.04 "HgN/A
11:30 PM
Jul 22
81 °FPartly cloudy.9 mph84%30.04 "HgN/A
11:00 PM81 °FPassing clouds.12 mph84%30.04 "Hg5 mi
10:30 PM81 °FPassing clouds.13 mph84%30.07 "HgN/A
10:00 PM82 °FPartly cloudy.15 mph79%30.07 "HgN/A
9:30 PM81 °FPassing clouds.14 mph84%30.04 "HgN/A
9:00 PM81 °FPartly cloudy.13 mph84%30.04 "HgN/A
Weather by CustomWeather, © 2014

See weather overviewHow to use our weather pages